TimeCST,TemperatureF,Dew PointF,Humidity,Sea Level PressureIn,VisibilityMPH,Wind Direction,Wind SpeedMPH,Gust SpeedMPH,PrecipitationIn,Events,Conditions,WindDirDegrees,DateUTC
12:01 AM,32.0,28.4,87,29.96,2.5,North,17.3,-,0.00,Snow,Light Snow,10,2013-02-25 06:01:00
12:19 AM,30.2,28.4,93,29.95,1.8,North,17.3,-,0.00,Snow,Light Snow,10,2013-02-25 06:19:00
12:27 AM,30.2,28.4,93,29.94,1.8,North,19.6,-,0.00,Snow,Light Snow,10,2013-02-25 06:27:00
12:42 AM,30.2,28.4,93,29.94,1.8,NNE,20.7,26.5,0.01,Snow,Light Snow,20,2013-02-25 06:42:00
12:53 AM,30.9,28.9,92,29.98,1.8,North,19.6,-,0.01,Snow,Light Snow,10,2013-02-25 06:53:00
1:53 AM,30.9,28.9,92,30.00,1.5,North,21.9,27.6,0.00,Snow,Light Snow,10,2013-02-25 07:53:00
2:05 AM,30.2,28.4,93,29.96,2.0,North,19.6,-,0.00,Snow,Light Snow,10,2013-02-25 08:05:00
2:16 AM,30.2,28.4,93,29.95,1.5,North,19.6,-,0.00,Snow,Light Snow,10,2013-02-25 08:16:00
2:51 AM,30.2,28.4,93,29.94,2.0,North,18.4,-,0.01,Snow,Light Snow,10,2013-02-25 08:51:00
2:53 AM,30.0,28.0,92,30.00,2.0,North,17.3,-,0.01,Snow,Light Snow,10,2013-02-25 08:53:00
3:48 AM,30.2,28.4,93,29.95,1.8,NNE,17.3,24.2,0.00,Snow,Light Snow,20,2013-02-25 09:48:00
3:53 AM,30.0,28.0,92,30.00,1.8,North,17.3,-,0.01,Snow,Light Snow,10,2013-02-25 09:53:00
4:53 AM,28.9,28.0,96,29.99,1.0,North,18.4,-,0.00,Snow,Light Snow,10,2013-02-25 10:53:00
5:53 AM,28.9,27.0,92,29.99,1.2,North,19.6,-,0.01,Snow,Light Snow,360,2013-02-25 11:53:00
6:53 AM,30.0,28.0,92,30.00,1.2,NNE,18.4,-,0.00,Snow,Light Snow,20,2013-02-25 12:53:00
7:32 AM,30.2,28.4,93,29.95,0.5,North,17.3,-,0.00,Fog-Snow,Light Snow,10,2013-02-25 13:32:00
7:53 AM,30.0,28.0,92,30.01,0.8,North,15.0,-,0.00,Snow,Light Snow,10,2013-02-25 13:53:00
8:53 AM,30.0,28.0,92,30.02,0.5,NNE,18.4,-,0.00,Fog-Snow,Light Snow,20,2013-02-25 14:53:00
9:29 AM,30.2,28.4,93,29.98,1.0,NNE,18.4,25.3,0.00,Snow,Light Snow,20,2013-02-25 15:29:00
9:53 AM,30.0,28.0,92,30.02,1.8,North,21.9,28.8,0.00,Snow,Light Snow,10,2013-02-25 15:53:00
10:25 AM,30.2,26.6,86,29.95,2.0,North,21.9,28.8,0.00,Snow,Light Snow,10,2013-02-25 16:25:00
10:53 AM,30.0,27.0,88,29.98,2.5,NNE,18.4,26.5,0.00,Snow,Light Snow,20,2013-02-25 16:53:00
11:06 AM,30.2,26.6,86,29.94,3.0,NNE,18.4,-,0.00,,Overcast,20,2013-02-25 17:06:00
11:22 AM,30.2,26.6,86,29.94,3.0,NNE,17.3,-,0.00,Snow,Light Snow,20,2013-02-25 17:22:00
11:32 AM,30.2,26.6,86,29.94,2.5,North,18.4,-,0.00,Snow,Light Snow,10,2013-02-25 17:32:00
11:53 AM,30.9,26.1,82,29.98,3.0,North,17.3,-,0.00,Snow,Light Snow,10,2013-02-25 17:53:00
12:53 PM,30.9,25.0,79,29.98,8.0,North,-9999.0,-,0.00,,Overcast,0,2013-02-25 18:53:00
1:53 PM,32.0,24.1,73,29.95,10.0,North,17.3,-,N/A,,Overcast,10,2013-02-25 19:53:00
2:53 PM,32.0,25.0,75,29.94,10.0,North,-9999.0,-,N/A,,Overcast,0,2013-02-25 20:53:00
3:53 PM,32.0,26.1,79,29.94,9.0,North,15.0,-,N/A,,Overcast,10,2013-02-25 21:53:00
4:50 PM,33.8,26.6,75,29.87,7.0,North,16.1,28.8,N/A,,Overcast,360,2013-02-25 22:50:00
4:53 PM,33.1,27.0,78,29.92,7.0,North,16.1,25.3,N/A,,Overcast,360,2013-02-25 22:53:00
5:53 PM,30.9,27.0,85,29.91,6.0,North,21.9,-,N/A,,Mostly Cloudy,360,2013-02-25 23:53:00
6:53 PM,30.0,26.1,85,29.90,6.0,North,19.6,28.8,N/A,,Mostly Cloudy,360,2013-02-26 00:53:00
7:53 PM,28.9,26.1,89,29.89,7.0,North,18.4,-,N/A,,Mostly Cloudy,350,2013-02-26 01:53:00
8:53 PM,28.9,25.0,85,29.91,7.0,North,13.8,-,N/A,,Mostly Cloudy,350,2013-02-26 02:53:00
9:53 PM,28.9,26.1,89,29.93,8.0,NNW,10.4,-,N/A,,Overcast,340,2013-02-26 03:53:00
10:53 PM,28.9,26.1,89,29.92,8.0,NNW,11.5,-,N/A,,Overcast,340,2013-02-26 04:53:00
11:53 PM,28.9,26.1,89,29.92,7.0,North,11.5,-,N/A,,Overcast,10,2013-02-26 05:53:00